Tracking 19827 objects as of 21-Aug-2019
HD Live streaming from Space Station
objects crossing your sky now

STARLINK OBJ AY

Track STARLINK OBJ AY now!
10-day predictions
STARLINK OBJ AY is classified as:


NORAD ID: 44281
Int'l Code: 2019-029AY
Perigee: 556.4 km
Apogee: 557.9 km
Inclination: 53.0 °
Period: 95.7 minutes
Semi major axis: 6928 km
RCS: Unknown
Launch date: May 24, 2019
Source: United States (US)
Launch site: AIR FORCE EASTERN TEST RANGE (AFETR)
aabbcc
Your satellite tracking list
Your tracking list is empty




NASA's NSSDC Master Catalog

Two Line Element Set (TLE):
1 44281U 19029AY  19232.89938080 +.00000067 +00000-0 +23801-4 0  9993
2 44281 053.0019 133.1596 0001064 069.7900 290.3202 15.05482845012754
Source of the keplerian elements: AFSPC